Time,TemperatureF,DewpointF,PressureIn,WindDirection,WindDirectionDegrees,WindSpeedMPH,WindSpeedGustMPH,Humidity,HourlyPrecipIn,Conditions,Clouds,dailyrainin,SoftwareType,DateUTC
2013-05-17 00:01:00,57.8,56.1,29.74,SW,224,0.0,-999.0,94,0.00,,,0.00,WeatherSnoop3.0,2013-05-17 05:01:00,
2013-05-17 00:06:00,57.7,56.3,29.74,SW,224,0.0,-999.0,95,0.00,,,0.00,WeatherSnoop3.0,2013-05-17 05:06:00,
2013-05-17 00:11:00,57.7,56.3,29.75,SW,224,0.0,-999.0,95,0.00,,,0.00,WeatherSnoop3.0,2013-05-17 05:11:00,
2013-05-17 00:16:00,57.5,56.1,29.75,SW,224,0.0,-999.0,95,0.00,,,0.00,WeatherSnoop3.0,2013-05-17 05:16:00,
2013-05-17 00:21:00,57.3,55.6,29.75,SW,224,0.0,-999.0,94,0.00,,,0.00,WeatherSnoop3.0,2013-05-17 05:21:00,
2013-05-17 00:26:00,57.1,55.4,29.75,SW,224,0.0,-999.0,94,0.00,,,0.00,WeatherSnoop3.0,2013-05-17 05:26:00,
2013-05-17 00:31:00,57.1,55.7,29.75,SW,224,0.0,-999.0,95,0.00,,,0.00,WeatherSnoop3.0,2013-05-17 05:31:00,
2013-05-17 00:36:00,57.0,55.9,29.75,SW,224,0.0,-999.0,96,0.00,,,0.00,WeatherSnoop3.0,2013-05-17 05:36:00,
2013-05-17 00:41:00,57.2,56.1,29.75,SW,224,0.0,-999.0,96,0.00,,,0.00,WeatherSnoop3.0,2013-05-17 05:41:00,
2013-05-17 00:46:00,57.2,55.8,29.74,South,173,0.0,-999.0,95,0.00,,,0.00,WeatherSnoop3.0,2013-05-17 05:46:00,
2013-05-17 00:51:00,57.1,55.7,29.74,South,174,0.0,-999.0,95,0.00,,,0.00,WeatherSnoop3.0,2013-05-17 05:51:00,
2013-05-17 00:56:00,57.1,56.0,29.75,South,173,0.0,-999.0,96,0.00,,,0.00,WeatherSnoop3.0,2013-05-17 05:56:00,
2013-05-17 01:01:00,57.1,55.7,29.74,South,173,0.0,-999.0,95,0.00,,,0.00,WeatherSnoop3.0,2013-05-17 06:01:00,
2013-05-17 01:06:00,56.8,55.4,29.74,South,173,0.0,-999.0,95,0.00,,,0.00,WeatherSnoop3.0,2013-05-17 06:06:00,
2013-05-17 01:11:00,57.1,56.0,29.75,South,173,0.0,-999.0,96,0.00,,,0.00,WeatherSnoop3.0,2013-05-17 06:11:00,
2013-05-17 01:16:00,56.9,55.8,29.75,South,173,0.0,-999.0,96,0.00,,,0.00,WeatherSnoop3.0,2013-05-17 06:16:00,
2013-05-17 01:21:00,56.8,55.7,29.75,South,174,0.0,-999.0,96,0.00,,,0.00,WeatherSnoop3.0,2013-05-17 06:21:00,
2013-05-17 01:26:00,56.9,56.1,29.74,South,173,0.0,-999.0,97,0.00,,,0.00,WeatherSnoop3.0,2013-05-17 06:26:00,
2013-05-17 01:31:00,56.7,55.6,29.74,South,173,0.0,-999.0,96,0.00,,,0.00,WeatherSnoop3.0,2013-05-17 06:31:00,
2013-05-17 01:36:00,56.4,55.3,29.74,South,173,0.0,-999.0,96,0.00,,,0.00,WeatherSnoop3.0,2013-05-17 06:36:00,
2013-05-17 01:41:00,56.7,55.9,29.73,South,174,0.0,-999.0,97,0.00,,,0.00,WeatherSnoop3.0,2013-05-17 06:41:00,
2013-05-17 01:46:00,56.6,55.8,29.73,South,173,0.0,-999.0,97,0.00,,,0.00,WeatherSnoop3.0,2013-05-17 06:46:00,
2013-05-17 01:51:00,56.6,55.8,29.73,South,173,0.0,-999.0,97,0.00,,,0.00,WeatherSnoop3.0,2013-05-17 06:51:00,
2013-05-17 01:56:00,56.6,55.8,29.73,South,173,0.0,-999.0,97,0.00,,,0.00,WeatherSnoop3.0,2013-05-17 06:56:00,
2013-05-17 02:01:00,56.3,55.2,29.73,South,173,0.0,-999.0,96,0.00,,,0.00,WeatherSnoop3.0,2013-05-17 07:01:00,
2013-05-17 02:06:00,56.1,55.0,29.73,South,173,0.0,-999.0,96,0.00,,,0.00,WeatherSnoop3.0,2013-05-17 07:06:00,
2013-05-17 02:11:00,56.0,54.9,29.73,South,173,0.0,-999.0,96,0.00,,,0.00,WeatherSnoop3.0,2013-05-17 07:11:00,
2013-05-17 02:16:00,56.0,55.2,29.73,South,173,0.0,-999.0,97,0.00,,,0.00,WeatherSnoop3.0,2013-05-17 07:16:00,
2013-05-17 02:21:00,57.2,56.6,29.72,SE,139,1.0,-999.0,98,0.00,,,0.00,WeatherSnoop3.0,2013-05-17 07:21:00,
2013-05-17 02:26:00,58.0,57.4,29.72,SE,143,0.0,-999.0,98,0.00,,,0.00,WeatherSnoop3.0,2013-05-17 07:26:00,
2013-05-17 02:31:00,58.3,57.7,29.72,SE,142,0.0,-999.0,98,0.00,,,0.00,WeatherSnoop3.0,2013-05-17 07:31:00,
2013-05-17 02:36:00,58.5,57.9,29.72,SE,142,0.0,-999.0,98,0.00,,,0.00,WeatherSnoop3.0,2013-05-17 07:36:00,
2013-05-17 02:41:00,58.7,58.1,29.71,SE,143,0.0,-999.0,98,0.00,,,0.00,WeatherSnoop3.0,2013-05-17 07:41:00,
2013-05-17 02:46:00,58.8,57.9,29.71,SE,139,1.0,-999.0,97,0.00,,,0.00,WeatherSnoop3.0,2013-05-17 07:46:00,
2013-05-17 02:51:00,58.9,58.0,29.70,SE,131,0.0,-999.0,97,0.00,,,0.00,WeatherSnoop3.0,2013-05-17 07:51:00,
2013-05-17 02:56:00,59.1,58.2,29.70,SE,139,0.0,-999.0,97,0.00,,,0.00,WeatherSnoop3.0,2013-05-17 07:56:00,
2013-05-17 03:01:00,59.2,58.1,29.70,SE,138,0.0,-999.0,96,0.00,,,0.00,WeatherSnoop3.0,2013-05-17 08:01:00,
2013-05-17 03:06:00,59.2,58.1,29.70,SE,142,1.0,-999.0,96,0.00,,,0.00,WeatherSnoop3.0,2013-05-17 08:06:00,
2013-05-17 03:11:00,59.2,58.1,29.70,SE,143,0.0,-999.0,96,0.00,,,0.00,WeatherSnoop3.0,2013-05-17 08:11:00,
2013-05-17 03:16:00,59.2,58.1,29.70,SE,142,0.0,-999.0,96,0.00,,,0.00,WeatherSnoop3.0,2013-05-17 08:16:00,
2013-05-17 03:21:00,59.2,58.1,29.70,SE,143,0.0,-999.0,96,0.00,,,0.00,WeatherSnoop3.0,2013-05-17 08:21:00,
2013-05-17 03:26:00,59.2,58.1,29.70,SE,139,0.0,-999.0,96,0.00,,,0.00,WeatherSnoop3.0,2013-05-17 08:26:00,
2013-05-17 03:31:00,59.2,58.1,29.71,SSW,208,0.0,-999.0,96,0.00,,,0.00,WeatherSnoop3.0,2013-05-17 08:31:00,
2013-05-17 03:36:00,59.2,58.1,29.71,SE,143,0.0,-999.0,96,0.00,,,0.00,WeatherSnoop3.0,2013-05-17 08:36:00,
2013-05-17 03:41:00,59.2,58.1,29.71,SE,143,2.0,-999.0,96,0.00,,,0.00,WeatherSnoop3.0,2013-05-17 08:41:00,
2013-05-17 03:46:00,59.3,58.2,29.71,SE,139,3.0,-999.0,96,0.00,,,0.00,WeatherSnoop3.0,2013-05-17 08:46:00,
2013-05-17 03:51:00,59.5,58.4,29.71,SE,124,0.0,-999.0,96,0.00,,,0.00,WeatherSnoop3.0,2013-05-17 08:51:00,
2013-05-17 03:56:00,59.6,58.5,29.72,SE,139,0.0,-999.0,96,0.00,,,0.00,WeatherSnoop3.0,2013-05-17 08:56:00,
2013-05-17 04:01:00,59.6,58.5,29.72,ESE,115,0.0,-999.0,96,0.00,,,0.00,WeatherSnoop3.0,2013-05-17 09:01:00,
2013-05-17 04:06:00,59.5,58.4,29.73,SSE,155,0.0,-999.0,96,0.00,,,0.00,WeatherSnoop3.0,2013-05-17 09:06:00,
2013-05-17 04:11:00,59.5,58.4,29.72,SE,138,0.0,-999.0,96,0.00,,,0.00,WeatherSnoop3.0,2013-05-17 09:11:00,
2013-05-17 04:16:00,59.3,58.2,29.73,SSW,211,0.0,-999.0,96,0.00,,,0.00,WeatherSnoop3.0,2013-05-17 09:16:00,
2013-05-17 04:21:00,59.2,58.1,29.73,SE,139,0.0,-999.0,96,0.00,,,0.00,WeatherSnoop3.0,2013-05-17 09:21:00,
2013-05-17 04:26:00,59.2,58.1,29.73,SSE,149,0.0,-999.0,96,0.00,,,0.00,WeatherSnoop3.0,2013-05-17 09:26:00,
2013-05-17 04:31:00,59.1,58.0,29.73,SE,133,1.0,-999.0,96,0.00,,,0.00,WeatherSnoop3.0,2013-05-17 09:31:00,
2013-05-17 04:36:00,59.1,58.2,29.72,SE,145,0.0,-999.0,97,0.00,,,0.00,WeatherSnoop3.0,2013-05-17 09:36:00,
2013-05-17 04:41:00,59.1,58.0,29.73,SE,140,2.0,-999.0,96,0.00,,,0.00,WeatherSnoop3.0,2013-05-17 09:41:00,
2013-05-17 04:46:00,59.0,58.1,29.73,SE,133,0.0,-999.0,97,0.00,,,0.00,WeatherSnoop3.0,2013-05-17 09:46:00,
2013-05-17 04:51:00,59.0,58.1,29.73,ESE,122,2.0,-999.0,97,0.00,,,0.00,WeatherSnoop3.0,2013-05-17 09:51:00,
2013-05-17 04:56:00,58.8,57.9,29.73,SE,132,0.0,-999.0,97,0.00,,,0.00,WeatherSnoop3.0,2013-05-17 09:56:00,
2013-05-17 05:01:00,58.7,57.8,29.73,SE,130,0.0,-999.0,97,0.00,,,0.00,WeatherSnoop3.0,2013-05-17 10:01:00,
2013-05-17 05:06:00,58.7,57.8,29.73,SE,133,1.0,-999.0,97,0.00,,,0.00,WeatherSnoop3.0,2013-05-17 10:06:00,
2013-05-17 05:11:00,58.6,57.8,29.73,SE,133,0.0,-999.0,97,0.00,,,0.00,WeatherSnoop3.0,2013-05-17 10:11:00,
2013-05-17 05:16:00,58.4,57.6,29.73,SSW,208,0.0,-999.0,97,0.00,,,0.00,WeatherSnoop3.0,2013-05-17 10:16:00,
2013-05-17 05:21:00,58.3,57.5,29.73,SSW,198,0.0,-999.0,97,0.00,,,0.00,WeatherSnoop3.0,2013-05-17 10:21:00,
2013-05-17 05:27:00,58.2,57.4,29.73,SE,145,0.0,-999.0,97,0.00,,,0.00,WeatherSnoop3.0,2013-05-17 10:27:00,
2013-05-17 05:32:00,58.2,57.4,29.73,SE,142,0.0,-999.0,97,0.00,,,0.00,WeatherSnoop3.0,2013-05-17 10:32:00,
2013-05-17 05:37:00,58.1,57.3,29.73,SE,142,0.0,-999.0,97,0.00,,,0.00,WeatherSnoop3.0,2013-05-17 10:37:00,
2013-05-17 05:42:00,58.1,57.3,29.73,SE,130,0.0,-999.0,97,0.00,,,0.00,WeatherSnoop3.0,2013-05-17 10:42:00,
2013-05-17 05:47:00,58.0,57.2,29.73,SE,146,0.0,-999.0,97,0.00,,,0.00,WeatherSnoop3.0,2013-05-17 10:47:00,
2013-05-17 05:52:00,58.1,57.5,29.74,SE,142,0.0,-999.0,98,0.00,,,0.00,WeatherSnoop3.0,2013-05-17 10:52:00,
2013-05-17 05:57:00,58.1,57.5,29.74,South,172,0.0,-999.0,98,0.00,,,0.00,WeatherSnoop3.0,2013-05-17 10:57:00,
2013-05-17 06:02:00,58.0,57.4,29.74,South,172,0.0,-999.0,98,0.00,,,0.00,WeatherSnoop3.0,2013-05-17 11:02:00,
2013-05-17 06:07:00,57.9,57.1,29.74,SSE,158,0.0,-999.0,97,0.00,,,0.00,WeatherSnoop3.0,2013-05-17 11:07:00,
2013-05-17 06:12:00,57.8,57.2,29.74,SSE,158,0.0,-999.0,98,0.00,,,0.00,WeatherSnoop3.0,2013-05-17 11:12:00,
2013-05-17 06:17:00,57.9,57.3,29.75,SSE,158,0.0,-999.0,98,0.00,,,0.00,WeatherSnoop3.0,2013-05-17 11:17:00,
2013-05-17 06:22:00,58.2,57.6,29.75,SE,145,0.0,-999.0,98,0.00,,,0.00,WeatherSnoop3.0,2013-05-17 11:22:00,
2013-05-17 06:27:00,58.5,57.9,29.75,SE,143,0.0,-999.0,98,0.00,,,0.00,WeatherSnoop3.0,2013-05-17 11:27:00,
2013-05-17 06:32:00,58.7,58.1,29.75,SE,143,0.0,-999.0,98,0.00,,,0.00,WeatherSnoop3.0,2013-05-17 11:32:00,
2013-05-17 06:37:00,58.8,58.2,29.75,SE,142,0.0,-999.0,98,0.00,,,0.00,WeatherSnoop3.0,2013-05-17 11:37:00,
2013-05-17 06:42:00,59.0,58.4,29.75,SSW,195,0.0,-999.0,98,0.00,,,0.00,WeatherSnoop3.0,2013-05-17 11:42:00,
2013-05-17 06:47:00,59.1,58.5,29.75,SE,145,0.0,-999.0,98,0.00,,,0.00,WeatherSnoop3.0,2013-05-17 11:47:00,
2013-05-17 06:52:00,59.2,58.6,29.75,SE,136,0.0,-999.0,98,0.00,,,0.00,WeatherSnoop3.0,2013-05-17 11:52:00,
2013-05-17 06:57:00,59.2,58.6,29.76,SSE,155,0.0,-999.0,98,0.00,,,0.00,WeatherSnoop3.0,2013-05-17 11:57:00,
2013-05-17 07:02:00,59.3,58.7,29.76,SE,142,0.0,-999.0,98,0.00,,,0.00,WeatherSnoop3.0,2013-05-17 12:02:00,
2013-05-17 07:07:00,59.4,58.8,29.76,SE,143,0.0,-999.0,98,0.00,,,0.00,WeatherSnoop3.0,2013-05-17 12:07:00,
2013-05-17 07:12:00,59.5,58.9,29.76,SE,142,0.0,-999.0,98,0.00,,,0.00,WeatherSnoop3.0,2013-05-17 12:12:00,
2013-05-17 07:17:00,59.5,58.9,29.77,South,169,0.0,-999.0,98,0.00,,,0.00,WeatherSnoop3.0,2013-05-17 12:17:00,
2013-05-17 07:22:00,59.6,59.0,29.77,South,169,0.0,-999.0,98,0.00,,,0.00,WeatherSnoop3.0,2013-05-17 12:22:00,
2013-05-17 07:27:00,59.7,59.1,29.77,South,169,0.0,-999.0,98,0.00,,,0.00,WeatherSnoop3.0,2013-05-17 12:27:00,
2013-05-17 07:32:00,59.9,59.3,29.77,South,169,0.0,-999.0,98,0.00,,,0.00,WeatherSnoop3.0,2013-05-17 12:32:00,
2013-05-17 07:37:00,60.0,59.4,29.77,South,169,0.0,-999.0,98,0.00,,,0.00,WeatherSnoop3.0,2013-05-17 12:37:00,
2013-05-17 07:42:00,60.1,59.5,29.77,SSE,162,0.0,-999.0,98,0.00,,,0.00,WeatherSnoop3.0,2013-05-17 12:42:00,
2013-05-17 07:47:00,60.2,59.6,29.78,SSE,151,0.0,-999.0,98,0.00,,,0.00,WeatherSnoop3.0,2013-05-17 12:47:00,
2013-05-17 07:52:00,60.4,59.8,29.78,SSW,203,0.0,-999.0,98,0.00,,,0.00,WeatherSnoop3.0,2013-05-17 12:52:00,
2013-05-17 07:57:00,60.6,60.0,29.78,SE,126,0.0,-999.0,98,0.00,,,0.00,WeatherSnoop3.0,2013-05-17 12:57:00,
2013-05-17 08:02:00,60.8,60.2,29.78,SSE,153,0.0,-999.0,98,0.00,,,0.00,WeatherSnoop3.0,2013-05-17 13:02:00,
2013-05-17 08:07:00,61.0,60.4,29.78,SSE,158,0.0,-999.0,98,0.00,,,0.00,WeatherSnoop3.0,2013-05-17 13:07:00,
2013-05-17 08:12:00,61.5,60.9,29.78,SSE,158,0.0,-999.0,98,0.00,,,0.00,WeatherSnoop3.0,2013-05-17 13:12:00,
2013-05-17 08:17:00,62.1,61.5,29.78,East,100,1.0,-999.0,98,0.00,,,0.00,WeatherSnoop3.0,2013-05-17 13:17:00,
2013-05-17 08:22:00,62.0,61.1,29.78,East,86,0.0,-999.0,97,0.00,,,0.00,WeatherSnoop3.0,2013-05-17 13:22:00,
2013-05-17 08:27:00,62.0,61.1,29.78,East,86,0.0,-999.0,97,0.00,,,0.00,WeatherSnoop3.0,2013-05-17 13:27:00,
2013-05-17 08:32:00,62.0,61.1,29.79,SE,143,1.0,-999.0,97,0.00,,,0.00,WeatherSnoop3.0,2013-05-17 13:32:00,
2013-05-17 08:37:00,62.4,61.5,29.79,East,97,0.0,-999.0,97,0.00,,,0.00,WeatherSnoop3.0,2013-05-17 13:37:00,
2013-05-17 08:42:00,62.9,62.0,29.79,SE,125,0.0,-999.0,97,0.00,,,0.00,WeatherSnoop3.0,2013-05-17 13:42:00,
2013-05-17 08:47:00,63.4,62.5,29.79,SSE,149,0.0,-999.0,97,0.00,,,0.00,WeatherSnoop3.0,2013-05-17 13:47:00,
2013-05-17 08:52:00,64.0,62.8,29.79,NE,44,2.0,-999.0,96,0.00,,,0.00,WeatherSnoop3.0,2013-05-17 13:52:00,
2013-05-17 08:57:00,64.1,62.6,29.79,SE,145,0.0,-999.0,95,0.00,,,0.00,WeatherSnoop3.0,2013-05-17 13:57:00,
2013-05-17 09:02:00,64.5,62.7,29.79,ESE,103,0.0,-999.0,94,0.00,,,0.00,WeatherSnoop3.0,2013-05-17 14:02:00,
2013-05-17 09:07:00,65.0,63.5,29.78,SE,142,0.0,-999.0,95,0.00,,,0.00,WeatherSnoop3.0,2013-05-17 14:07:00,
2013-05-17 09:12:00,65.6,63.5,29.79,ENE,77,0.0,-999.0,93,0.00,,,0.00,WeatherSnoop3.0,2013-05-17 14:12:00,
2013-05-17 09:17:00,66.3,63.6,29.79,ESE,102,0.0,-999.0,91,0.00,,,0.00,WeatherSnoop3.0,2013-05-17 14:17:00,
2013-05-17 09:22:00,66.9,63.9,29.79,East,86,0.0,-999.0,90,0.00,,,0.00,WeatherSnoop3.0,2013-05-17 14:22:00,
2013-05-17 09:27:00,67.3,63.6,29.79,East,95,0.0,-999.0,88,0.00,,,0.00,WeatherSnoop3.0,2013-05-17 14:27:00,
2013-05-17 09:32:00,67.8,64.1,29.79,NE,46,0.0,-999.0,88,0.00,,,0.00,WeatherSnoop3.0,2013-05-17 14:32:00,
2013-05-17 09:37:00,68.0,64.3,29.78,East,99,0.0,-999.0,88,0.00,,,0.00,WeatherSnoop3.0,2013-05-17 14:37:00,
2013-05-17 09:42:00,68.3,64.3,29.79,East,95,0.0,-999.0,87,0.00,,,0.00,WeatherSnoop3.0,2013-05-17 14:42:00,
2013-05-17 09:47:00,68.7,64.7,29.78,SSE,158,3.0,-999.0,87,0.00,,,0.00,WeatherSnoop3.0,2013-05-17 14:47:00,
2013-05-17 09:52:00,69.4,65.4,29.78,SSE,160,2.0,-999.0,87,0.00,,,0.00,WeatherSnoop3.0,2013-05-17 14:52:00,
2013-05-17 09:57:00,69.9,65.5,29.78,ENE,68,1.0,-999.0,86,0.00,,,0.00,WeatherSnoop3.0,2013-05-17 14:57:00,
2013-05-17 10:02:00,70.0,64.9,29.78,East,99,1.0,-999.0,84,0.00,,,0.00,WeatherSnoop3.0,2013-05-17 15:02:00,
2013-05-17 10:07:00,70.4,65.3,29.78,East,97,2.0,-999.0,84,0.00,,,0.00,WeatherSnoop3.0,2013-05-17 15:07:00,
2013-05-17 10:12:00,70.4,65.0,29.78,SSE,155,2.0,-999.0,83,0.00,,,0.00,WeatherSnoop3.0,2013-05-17 15:12:00,
2013-05-17 10:17:00,70.9,65.5,29.78,East,94,0.0,-999.0,83,0.00,,,0.00,WeatherSnoop3.0,2013-05-17 15:17:00,
2013-05-17 10:22:00,70.8,64.3,29.78,East,93,4.0,-999.0,80,0.00,,,0.00,WeatherSnoop3.0,2013-05-17 15:22:00,
2013-05-17 10:27:00,70.8,65.0,29.78,East,101,0.0,-999.0,82,0.00,,,0.00,WeatherSnoop3.0,2013-05-17 15:27:00,
2013-05-17 10:32:00,71.2,64.7,29.77,ESE,102,0.0,-999.0,80,0.00,,,0.00,WeatherSnoop3.0,2013-05-17 15:32:00,
2013-05-17 10:37:00,71.5,66.1,29.77,ESE,109,1.0,-999.0,83,0.00,,,0.00,WeatherSnoop3.0,2013-05-17 15:37:00,
2013-05-17 10:42:00,71.7,64.8,29.77,ENE,77,0.0,-999.0,79,0.00,,,0.00,WeatherSnoop3.0,2013-05-17 15:42:00,
2013-05-17 10:47:00,71.5,65.0,29.77,East,92,2.0,-999.0,80,0.00,,,0.00,WeatherSnoop3.0,2013-05-17 15:47:00,
2013-05-17 10:52:00,71.3,64.8,29.77,South,170,1.0,-999.0,80,0.00,,,0.00,WeatherSnoop3.0,2013-05-17 15:52:00,
2013-05-17 10:57:00,72.0,64.4,29.77,SSE,160,5.0,-999.0,77,0.00,,,0.00,WeatherSnoop3.0,2013-05-17 15:57:00,
2013-05-17 11:02:00,72.5,65.2,29.77,ESE,122,1.0,-999.0,78,0.00,,,0.00,WeatherSnoop3.0,2013-05-17 16:02:00,
2013-05-17 11:07:00,72.7,65.1,29.77,East,84,2.0,-999.0,77,0.00,,,0.00,WeatherSnoop3.0,2013-05-17 16:07:00,
2013-05-17 11:12:00,73.1,65.4,29.77,East,91,3.0,-999.0,77,0.00,,,0.00,WeatherSnoop3.0,2013-05-17 16:12:00,
2013-05-17 11:17:00,73.4,65.0,29.77,ESE,117,5.0,-999.0,75,0.00,,,0.00,WeatherSnoop3.0,2013-05-17 16:17:00,
2013-05-17 11:22:00,73.3,65.3,29.77,East,93,2.0,-999.0,76,0.00,,,0.00,WeatherSnoop3.0,2013-05-17 16:22:00,
2013-05-17 11:27:00,73.4,64.6,29.77,ESE,122,4.0,-999.0,74,0.00,,,0.00,WeatherSnoop3.0,2013-05-17 16:27:00,
2013-05-17 11:32:00,73.8,64.2,29.77,SSE,160,6.0,-999.0,72,0.00,,,0.00,WeatherSnoop3.0,2013-05-17 16:32:00,
2013-05-17 11:37:00,73.9,64.3,29.77,East,99,3.0,-999.0,72,0.00,,,0.00,WeatherSnoop3.0,2013-05-17 16:37:00,
2013-05-17 11:42:00,74.0,64.8,29.77,ESE,106,1.0,-999.0,73,0.00,,,0.00,WeatherSnoop3.0,2013-05-17 16:42:00,
2013-05-17 11:47:00,74.7,66.6,29.77,SE,139,5.0,-999.0,76,0.00,,,0.00,WeatherSnoop3.0,2013-05-17 16:47:00,
2013-05-17 11:52:00,74.8,63.9,29.77,East,92,3.0,-999.0,69,0.00,,,0.00,WeatherSnoop3.0,2013-05-17 16:52:00,
2013-05-17 11:57:00,74.7,65.1,29.77,East,84,2.0,-999.0,72,0.00,,,0.00,WeatherSnoop3.0,2013-05-17 16:57:00,
2013-05-17 12:02:00,74.7,63.8,29.77,East,88,2.0,-999.0,69,0.00,,,0.00,WeatherSnoop3.0,2013-05-17 17:02:00,
2013-05-17 12:07:00,75.0,64.1,29.77,ESE,107,1.0,-999.0,69,0.00,,,0.00,WeatherSnoop3.0,2013-05-17 17:07:00,
2013-05-17 12:12:00,75.1,64.2,29.77,East,82,1.0,-999.0,69,0.00,,,0.00,WeatherSnoop3.0,2013-05-17 17:12:00,
2013-05-17 12:17:00,75.5,65.0,29.77,SSE,148,3.0,-999.0,70,0.00,,,0.00,WeatherSnoop3.0,2013-05-17 17:17:00,
2013-05-17 12:22:00,75.7,63.9,29.77,East,85,4.0,-999.0,67,0.00,,,0.00,WeatherSnoop3.0,2013-05-17 17:22:00,
2013-05-17 12:27:00,75.3,63.1,29.77,East,94,0.0,-999.0,66,0.00,,,0.00,WeatherSnoop3.0,2013-05-17 17:27:00,
2013-05-17 12:32:00,75.9,65.4,29.77,ESE,113,2.0,-999.0,70,0.00,,,0.00,WeatherSnoop3.0,2013-05-17 17:32:00,
2013-05-17 12:37:00,76.3,64.9,29.77,East,91,3.0,-999.0,68,0.00,,,0.00,WeatherSnoop3.0,2013-05-17 17:37:00,
2013-05-17 12:42:00,76.4,64.6,29.77,East,91,0.0,-999.0,67,0.00,,,0.00,WeatherSnoop3.0,2013-05-17 17:42:00,
2013-05-17 12:47:00,76.4,65.0,29.76,ESE,107,1.0,-999.0,68,0.00,,,0.00,WeatherSnoop3.0,2013-05-17 17:47:00,
2013-05-17 12:52:00,76.8,66.3,29.77,SSW,200,3.0,-999.0,70,0.00,,,0.00,WeatherSnoop3.0,2013-05-17 17:52:00,
2013-05-17 12:57:00,77.0,63.9,29.76,East,82,2.0,-999.0,64,0.00,,,0.00,WeatherSnoop3.0,2013-05-17 17:57:00,
2013-05-17 13:02:00,76.7,64.0,29.77,ESE,102,1.0,-999.0,65,0.00,,,0.00,WeatherSnoop3.0,2013-05-17 18:02:00,
2013-05-17 13:07:00,76.9,64.2,29.76,East,84,2.0,-999.0,65,0.00,,,0.00,WeatherSnoop3.0,2013-05-17 18:07:00,
2013-05-17 13:12:00,77.1,63.5,29.76,ESE,102,2.0,-999.0,63,0.00,,,0.00,WeatherSnoop3.0,2013-05-17 18:12:00,
2013-05-17 13:17:00,77.2,64.9,29.76,SE,124,3.0,-999.0,66,0.00,,,0.00,WeatherSnoop3.0,2013-05-17 18:17:00,
2013-05-17 13:22:00,77.3,64.6,29.76,SSE,149,1.0,-999.0,65,0.00,,,0.00,WeatherSnoop3.0,2013-05-17 18:22:00,
2013-05-17 13:27:00,77.9,65.2,29.76,SE,132,2.0,-999.0,65,0.00,,,0.00,WeatherSnoop3.0,2013-05-17 18:27:00,
2013-05-17 13:32:00,77.7,64.1,29.76,SE,126,2.0,-999.0,63,0.00,,,0.00,WeatherSnoop3.0,2013-05-17 18:32:00,
2013-05-17 13:37:00,77.6,64.4,29.76,East,87,1.0,-999.0,64,0.00,,,0.00,WeatherSnoop3.0,2013-05-17 18:37:00,
2013-05-17 13:42:00,77.9,65.2,29.75,ESE,115,1.0,-999.0,65,0.00,,,0.00,WeatherSnoop3.0,2013-05-17 18:42:00,
2013-05-17 13:47:00,78.6,65.8,29.75,SE,142,3.0,-999.0,65,0.00,,,0.00,WeatherSnoop3.0,2013-05-17 18:47:00,
2013-05-17 13:52:00,78.7,65.5,29.75,SSE,148,5.0,-999.0,64,0.00,,,0.00,WeatherSnoop3.0,2013-05-17 18:52:00,
2013-05-17 13:57:00,79.1,65.9,29.75,ESE,122,1.0,-999.0,64,0.00,,,0.00,WeatherSnoop3.0,2013-05-17 18:57:00,
2013-05-17 14:02:00,78.5,65.3,29.75,ESE,113,2.0,-999.0,64,0.00,,,0.00,WeatherSnoop3.0,2013-05-17 19:02:00,
2013-05-17 14:07:00,78.3,64.6,29.75,ESE,122,2.0,-999.0,63,0.00,,,0.00,WeatherSnoop3.0,2013-05-17 19:07:00,
2013-05-17 14:12:00,78.6,65.8,29.75,SSE,151,1.0,-999.0,65,0.00,,,0.00,WeatherSnoop3.0,2013-05-17 19:12:00,
2013-05-17 14:17:00,79.1,65.4,29.75,SE,129,3.0,-999.0,63,0.00,,,0.00,WeatherSnoop3.0,2013-05-17 19:17:00,
2013-05-17 14:22:00,79.2,64.6,29.75,SE,139,6.0,-999.0,61,0.00,,,0.00,WeatherSnoop3.0,2013-05-17 19:22:00,
2013-05-17 14:27:00,79.6,65.4,29.75,SSW,200,3.0,-999.0,62,0.00,,,0.00,WeatherSnoop3.0,2013-05-17 19:27:00,
2013-05-17 14:32:00,80.0,65.3,29.75,SE,131,2.0,-999.0,61,0.00,,,0.00,WeatherSnoop3.0,2013-05-17 19:32:00,
2013-05-17 14:37:00,80.1,66.3,29.75,SSE,153,6.0,-999.0,63,0.00,,,0.00,WeatherSnoop3.0,2013-05-17 19:37:00,
2013-05-17 14:42:00,80.2,65.5,29.75,SE,134,5.0,-999.0,61,0.00,,,0.00,WeatherSnoop3.0,2013-05-17 19:42:00,
2013-05-17 14:47:00,79.9,65.7,29.74,SSE,148,3.0,-999.0,62,0.00,,,0.00,WeatherSnoop3.0,2013-05-17 19:47:00,
2013-05-17 14:52:00,80.6,64.9,29.74,SSE,150,3.0,-999.0,59,0.00,,,0.00,WeatherSnoop3.0,2013-05-17 19:52:00,
2013-05-17 14:57:00,80.3,67.4,29.74,SSW,205,3.0,-999.0,65,0.00,,,0.00,WeatherSnoop3.0,2013-05-17 19:57:00,
2013-05-17 15:02:00,80.7,65.0,29.74,East,86,4.0,-999.0,59,0.00,,,0.00,WeatherSnoop3.0,2013-05-17 20:02:00,
2013-05-17 15:07:00,81.0,67.2,29.74,SE,140,4.0,-999.0,63,0.00,,,0.00,WeatherSnoop3.0,2013-05-17 20:07:00,
2013-05-17 15:12:00,80.5,66.3,29.74,SE,131,5.0,-999.0,62,0.00,,,0.00,WeatherSnoop3.0,2013-05-17 20:12:00,
2013-05-17 15:17:00,80.1,64.5,29.74,SSE,153,4.0,-999.0,59,0.00,,,0.00,WeatherSnoop3.0,2013-05-17 20:17:00,
2013-05-17 15:22:00,80.0,65.3,29.74,SSE,166,2.0,-999.0,61,0.00,,,0.00,WeatherSnoop3.0,2013-05-17 20:22:00,
2013-05-17 15:27:00,80.6,65.9,29.74,SE,125,6.0,-999.0,61,0.00,,,0.00,WeatherSnoop3.0,2013-05-17 20:27:00,
2013-05-17 15:32:00,80.5,65.8,29.74,SSE,155,5.0,-999.0,61,0.00,,,0.00,WeatherSnoop3.0,2013-05-17 20:32:00,
2013-05-17 15:37:00,80.7,64.5,29.74,SE,142,3.0,-999.0,58,0.00,,,0.00,WeatherSnoop3.0,2013-05-17 20:37:00,
2013-05-17 15:42:00,81.0,65.8,29.74,South,183,5.0,-999.0,60,0.00,,,0.00,WeatherSnoop3.0,2013-05-17 20:42:00,
2013-05-17 15:47:00,81.4,67.1,29.73,South,186,6.0,-999.0,62,0.00,,,0.00,WeatherSnoop3.0,2013-05-17 20:47:00,
2013-05-17 15:52:00,80.6,64.4,29.73,ESE,113,2.0,-999.0,58,0.00,,,0.00,WeatherSnoop3.0,2013-05-17 20:52:00,
2013-05-17 15:57:00,80.7,66.0,29.73,South,173,3.0,-999.0,61,0.00,,,0.00,WeatherSnoop3.0,2013-05-17 20:57:00,
2013-05-17 16:02:00,80.9,65.7,29.73,SE,140,2.0,-999.0,60,0.00,,,0.00,WeatherSnoop3.0,2013-05-17 21:02:00,
2013-05-17 16:07:00,81.2,65.5,29.73,SSW,208,8.0,-999.0,59,0.00,,,0.00,WeatherSnoop3.0,2013-05-17 21:07:00,
2013-05-17 16:12:00,81.1,64.9,29.73,ENE,73,5.0,-999.0,58,0.00,,,0.00,WeatherSnoop3.0,2013-05-17 21:12:00,
2013-05-17 16:17:00,81.0,65.8,29.73,East,100,5.0,-999.0,60,0.00,,,0.00,WeatherSnoop3.0,2013-05-17 21:17:00,
2013-05-17 16:22:00,80.9,65.2,29.73,East,101,3.0,-999.0,59,0.00,,,0.00,WeatherSnoop3.0,2013-05-17 21:22:00,
2013-05-17 16:27:00,81.2,66.0,29.72,SE,142,3.0,-999.0,60,0.00,,,0.00,WeatherSnoop3.0,2013-05-17 21:27:00,
2013-05-17 16:32:00,80.9,66.2,29.72,ESE,111,4.0,-999.0,61,0.00,,,0.00,WeatherSnoop3.0,2013-05-17 21:32:00,
2013-05-17 16:37:00,80.9,65.7,29.72,SE,131,3.0,-999.0,60,0.00,,,0.00,WeatherSnoop3.0,2013-05-17 21:37:00,
2013-05-17 16:42:00,81.2,66.4,29.72,SE,142,6.0,-999.0,61,0.00,,,0.00,WeatherSnoop3.0,2013-05-17 21:42:00,
2013-05-17 16:47:00,80.8,65.1,29.72,SE,140,2.0,-999.0,59,0.00,,,0.00,WeatherSnoop3.0,2013-05-17 21:47:00,
2013-05-17 16:52:00,80.8,65.6,29.72,ESE,104,4.0,-999.0,60,0.00,,,0.00,WeatherSnoop3.0,2013-05-17 21:52:00,
2013-05-17 16:57:00,80.6,64.9,29.72,East,80,3.0,-999.0,59,0.00,,,0.00,WeatherSnoop3.0,2013-05-17 21:57:00,
2013-05-17 17:02:00,80.7,66.0,29.72,SE,143,5.0,-999.0,61,0.00,,,0.00,WeatherSnoop3.0,2013-05-17 22:02:00,
2013-05-17 17:07:00,80.3,65.6,29.71,ESE,122,5.0,-999.0,61,0.00,,,0.00,WeatherSnoop3.0,2013-05-17 22:07:00,
2013-05-17 17:12:00,80.1,64.9,29.72,ESE,122,4.0,-999.0,60,0.00,,,0.00,WeatherSnoop3.0,2013-05-17 22:12:00,
2013-05-17 17:17:00,80.2,66.4,29.71,SE,131,5.0,-999.0,63,0.00,,,0.00,WeatherSnoop3.0,2013-05-17 22:17:00,
2013-05-17 17:22:00,80.6,65.9,29.71,SE,139,7.0,-999.0,61,0.00,,,0.00,WeatherSnoop3.0,2013-05-17 22:22:00,
2013-05-17 17:27:00,80.7,65.0,29.71,ESE,115,4.0,-999.0,59,0.00,,,0.00,WeatherSnoop3.0,2013-05-17 22:27:00,
2013-05-17 17:32:00,80.7,66.0,29.71,ESE,105,3.0,-999.0,61,0.00,,,0.00,WeatherSnoop3.0,2013-05-17 22:32:00,
2013-05-17 17:37:00,80.8,65.6,29.71,SE,131,2.0,-999.0,60,0.00,,,0.00,WeatherSnoop3.0,2013-05-17 22:37:00,
2013-05-17 17:42:00,80.9,65.7,29.71,SE,142,3.0,-999.0,60,0.00,,,0.00,WeatherSnoop3.0,2013-05-17 22:42:00,
2013-05-17 17:47:00,80.8,65.1,29.71,ESE,113,2.0,-999.0,59,0.00,,,0.00,WeatherSnoop3.0,2013-05-17 22:47:00,
2013-05-17 17:52:00,80.7,65.5,29.71,ESE,115,2.0,-999.0,60,0.00,,,0.00,WeatherSnoop3.0,2013-05-17 22:52:00,
2013-05-17 17:57:00,80.8,65.1,29.71,East,84,3.0,-999.0,59,0.00,,,0.00,WeatherSnoop3.0,2013-05-17 22:57:00,
2013-05-17 18:02:00,80.5,64.8,29.71,ENE,74,2.0,-999.0,59,0.00,,,0.00,WeatherSnoop3.0,2013-05-17 23:02:00,
2013-05-17 18:07:00,80.3,65.1,29.71,SE,145,3.0,-999.0,60,0.00,,,0.00,WeatherSnoop3.0,2013-05-17 23:07:00,
2013-05-17 18:12:00,80.2,65.0,29.71,ESE,116,3.0,-999.0,60,0.00,,,0.00,WeatherSnoop3.0,2013-05-17 23:12:00,
2013-05-17 18:17:00,80.2,65.5,29.71,South,187,2.0,-999.0,61,0.00,,,0.00,WeatherSnoop3.0,2013-05-17 23:17:00,
2013-05-17 18:22:00,80.2,64.5,29.71,ESE,105,5.0,-999.0,59,0.00,,,0.00,WeatherSnoop3.0,2013-05-17 23:22:00,
2013-05-17 18:27:00,80.1,65.4,29.71,ESE,108,3.0,-999.0,61,0.00,,,0.00,WeatherSnoop3.0,2013-05-17 23:27:00,
2013-05-17 18:32:00,79.9,65.2,29.71,SSE,148,2.0,-999.0,61,0.00,,,0.00,WeatherSnoop3.0,2013-05-17 23:32:00,
2013-05-17 18:37:00,79.9,64.8,29.71,SE,137,3.0,-999.0,60,0.00,,,0.00,WeatherSnoop3.0,2013-05-17 23:37:00,
2013-05-17 18:42:00,79.9,65.7,29.70,SSE,156,2.0,-999.0,62,0.00,,,0.00,WeatherSnoop3.0,2013-05-17 23:42:00,
2013-05-17 18:47:00,79.9,65.2,29.71,ESE,111,3.0,-999.0,61,0.00,,,0.00,WeatherSnoop3.0,2013-05-17 23:47:00,
2013-05-17 18:52:00,79.7,65.0,29.71,ESE,104,4.0,-999.0,61,0.00,,,0.00,WeatherSnoop3.0,2013-05-17 23:52:00,
2013-05-17 18:57:00,79.7,65.5,29.71,South,190,2.0,-999.0,62,0.00,,,0.00,WeatherSnoop3.0,2013-05-17 23:57:00,
2013-05-17 19:02:00,79.6,64.9,29.71,SE,137,6.0,-999.0,61,0.00,,,0.00,WeatherSnoop3.0,2013-05-18 00:02:00,
2013-05-17 19:07:00,79.4,65.2,29.71,SE,142,4.0,-999.0,62,0.00,,,0.00,WeatherSnoop3.0,2013-05-18 00:07:00,
2013-05-17 19:12:00,79.3,65.6,29.71,SE,126,2.0,-999.0,63,0.00,,,0.00,WeatherSnoop3.0,2013-05-18 00:12:00,
2013-05-17 19:17:00,79.0,65.3,29.71,East,96,2.0,-999.0,63,0.00,,,0.00,WeatherSnoop3.0,2013-05-18 00:17:00,
2013-05-17 19:22:00,78.5,64.8,29.71,East,101,3.0,-999.0,63,0.00,,,0.00,WeatherSnoop3.0,2013-05-18 00:22:00,
2013-05-17 19:27:00,78.1,65.4,29.71,ESE,113,4.0,-999.0,65,0.00,,,0.00,WeatherSnoop3.0,2013-05-18 00:27:00,
2013-05-17 19:32:00,77.7,65.0,29.71,SE,146,4.0,-999.0,65,0.00,,,0.00,WeatherSnoop3.0,2013-05-18 00:32:00,
2013-05-17 19:37:00,77.4,65.1,29.71,SSE,153,2.0,-999.0,66,0.00,,,0.00,WeatherSnoop3.0,2013-05-18 00:37:00,
2013-05-17 19:42:00,77.1,65.3,29.71,SE,140,3.0,-999.0,67,0.00,,,0.00,WeatherSnoop3.0,2013-05-18 00:42:00,
2013-05-17 19:47:00,76.9,65.5,29.71,SSE,155,2.0,-999.0,68,0.00,,,0.00,WeatherSnoop3.0,2013-05-18 00:47:00,
2013-05-17 19:52:00,76.6,65.2,29.71,SSE,158,1.0,-999.0,68,0.00,,,0.00,WeatherSnoop3.0,2013-05-18 00:52:00,
2013-05-17 19:57:00,76.3,64.9,29.72,South,187,4.0,-999.0,68,0.00,,,0.00,WeatherSnoop3.0,2013-05-18 00:57:00,
2013-05-17 20:02:00,76.0,65.1,29.72,SE,142,5.0,-999.0,69,0.00,,,0.00,WeatherSnoop3.0,2013-05-18 01:02:00,
2013-05-17 20:07:00,75.7,65.2,29.72,SE,140,2.0,-999.0,70,0.00,,,0.00,WeatherSnoop3.0,2013-05-18 01:07:00,
2013-05-17 20:12:00,75.4,64.9,29.71,SE,139,3.0,-999.0,70,0.00,,,0.00,WeatherSnoop3.0,2013-05-18 01:12:00,
2013-05-17 20:17:00,75.1,65.0,29.72,SSE,150,1.0,-999.0,71,0.00,,,0.00,WeatherSnoop3.0,2013-05-18 01:17:00,
2013-05-17 20:22:00,74.8,65.2,29.72,SSE,164,3.0,-999.0,72,0.00,,,0.00,WeatherSnoop3.0,2013-05-18 01:22:00,
2013-05-17 20:27:00,74.5,64.9,29.72,SE,131,1.0,-999.0,72,0.00,,,0.00,WeatherSnoop3.0,2013-05-18 01:27:00,
2013-05-17 20:32:00,74.1,64.9,29.72,SE,137,1.0,-999.0,73,0.00,,,0.00,WeatherSnoop3.0,2013-05-18 01:32:00,
2013-05-17 20:37:00,73.7,64.9,29.72,SSE,152,1.0,-999.0,74,0.00,,,0.00,WeatherSnoop3.0,2013-05-18 01:37:00,
2013-05-17 20:42:00,73.3,64.9,29.72,SE,146,1.0,-999.0,75,0.00,,,0.00,WeatherSnoop3.0,2013-05-18 01:42:00,
2013-05-17 20:47:00,73.0,64.6,29.72,SSE,147,0.0,-999.0,75,0.00,,,0.00,WeatherSnoop3.0,2013-05-18 01:47:00,
2013-05-17 20:52:00,72.7,64.7,29.72,ESE,113,1.0,-999.0,76,0.00,,,0.00,WeatherSnoop3.0,2013-05-18 01:52:00,
2013-05-17 20:57:00,72.4,64.8,29.72,SSE,162,0.0,-999.0,77,0.00,,,0.00,WeatherSnoop3.0,2013-05-18 01:57:00,
2013-05-17 21:02:00,72.1,64.9,29.72,SE,126,0.0,-999.0,78,0.00,,,0.00,WeatherSnoop3.0,2013-05-18 02:02:00,
2013-05-17 21:07:00,71.8,64.9,29.72,SE,134,1.0,-999.0,79,0.00,,,0.00,WeatherSnoop3.0,2013-05-18 02:07:00,
2013-05-17 21:12:00,71.5,64.6,29.72,SE,126,1.0,-999.0,79,0.00,,,0.00,WeatherSnoop3.0,2013-05-18 02:12:00,
2013-05-17 21:17:00,71.2,64.7,29.72,SE,131,0.0,-999.0,80,0.00,,,0.00,WeatherSnoop3.0,2013-05-18 02:17:00,
2013-05-17 21:22:00,70.9,64.8,29.72,SE,131,3.0,-999.0,81,0.00,,,0.00,WeatherSnoop3.0,2013-05-18 02:22:00,
2013-05-17 21:27:00,70.6,64.5,29.72,ESE,122,0.0,-999.0,81,0.00,,,0.00,WeatherSnoop3.0,2013-05-18 02:27:00,
2013-05-17 21:32:00,70.4,64.6,29.72,ESE,120,1.0,-999.0,82,0.00,,,0.00,WeatherSnoop3.0,2013-05-18 02:32:00,
2013-05-17 21:37:00,70.2,64.4,29.73,SSE,149,2.0,-999.0,82,0.00,,,0.00,WeatherSnoop3.0,2013-05-18 02:37:00,
2013-05-17 21:42:00,70.1,64.3,29.72,SSE,166,4.0,-999.0,82,0.00,,,0.00,WeatherSnoop3.0,2013-05-18 02:42:00,
2013-05-17 21:47:00,69.9,64.5,29.73,ENE,77,3.0,-999.0,83,0.00,,,0.00,WeatherSnoop3.0,2013-05-18 02:47:00,
2013-05-17 21:52:00,69.9,64.5,29.73,ESE,119,2.0,-999.0,83,0.00,,,0.00,WeatherSnoop3.0,2013-05-18 02:52:00,
2013-05-17 21:57:00,69.8,64.4,29.73,SSE,160,2.0,-999.0,83,0.00,,,0.00,WeatherSnoop3.0,2013-05-18 02:57:00,
2013-05-17 22:02:00,69.7,64.3,29.73,East,99,1.0,-999.0,83,0.00,,,0.00,WeatherSnoop3.0,2013-05-18 03:02:00,
2013-05-17 22:07:00,69.7,64.6,29.72,ESE,107,1.0,-999.0,84,0.00,,,0.00,WeatherSnoop3.0,2013-05-18 03:07:00,
2013-05-17 22:12:00,69.7,64.6,29.73,SE,138,1.0,-999.0,84,0.00,,,0.00,WeatherSnoop3.0,2013-05-18 03:12:00,
2013-05-17 22:17:00,69.6,64.5,29.73,SE,131,3.0,-999.0,84,0.00,,,0.00,WeatherSnoop3.0,2013-05-18 03:17:00,
2013-05-17 22:22:00,69.5,64.4,29.72,SE,145,3.0,-999.0,84,0.00,,,0.00,WeatherSnoop3.0,2013-05-18 03:22:00,
2013-05-17 22:27:00,69.5,64.4,29.72,SE,133,3.0,-999.0,84,0.00,,,0.00,WeatherSnoop3.0,2013-05-18 03:27:00,
2013-05-17 22:32:00,69.4,64.3,29.73,SSE,153,4.0,-999.0,84,0.00,,,0.00,WeatherSnoop3.0,2013-05-18 03:32:00,
2013-05-17 22:37:00,69.3,64.3,29.73,SSE,153,1.0,-999.0,84,0.00,,,0.00,WeatherSnoop3.0,2013-05-18 03:37:00,
2013-05-17 22:42:00,69.4,64.7,29.73,SSE,160,1.0,-999.0,85,0.00,,,0.00,WeatherSnoop3.0,2013-05-18 03:42:00,
2013-05-17 22:47:00,69.5,64.8,29.73,ESE,110,2.0,-999.0,85,0.00,,,0.00,WeatherSnoop3.0,2013-05-18 03:47:00,
2013-05-17 22:52:00,69.6,64.9,29.73,SE,126,3.0,-999.0,85,0.00,,,0.00,WeatherSnoop3.0,2013-05-18 03:52:00,
2013-05-17 22:57:00,69.7,65.0,29.73,SE,125,2.0,-999.0,85,0.00,,,0.00,WeatherSnoop3.0,2013-05-18 03:57:00,
2013-05-17 23:01:00,69.8,65.1,29.73,SE,128,2.0,-999.0,85,0.00,,,0.00,WeatherSnoop3.0,2013-05-18 04:01:00,
2013-05-17 23:02:00,69.8,65.1,29.73,SE,128,1.0,-999.0,85,0.00,,,0.00,WeatherSnoop3.0,2013-05-18 04:02:00,
2013-05-17 23:04:00,69.8,65.1,29.73,SE,146,3.0,-999.0,85,0.00,,,0.00,WeatherSnoop3.0,2013-05-18 04:04:00,
2013-05-17 23:07:00,69.8,65.1,29.73,SE,145,3.0,-999.0,85,0.00,,,0.00,WeatherSnoop3.0,2013-05-18 04:07:00,
2013-05-17 23:12:00,69.8,65.1,29.73,SSE,152,4.0,-999.0,85,0.00,,,0.00,WeatherSnoop3.0,2013-05-18 04:12:00,
2013-05-17 23:15:00,69.7,65.0,29.73,SE,138,3.0,-999.0,85,0.00,,,0.00,WeatherSnoop3.0,2013-05-18 04:15:00,
2013-05-17 23:20:00,69.5,65.1,29.73,SE,126,1.0,-999.0,86,0.00,,,0.00,WeatherSnoop3.0,2013-05-18 04:20:00,
2013-05-17 23:25:00,69.3,65.3,29.72,SE,139,1.0,-999.0,87,0.00,,,0.00,WeatherSnoop3.0,2013-05-18 04:25:00,
2013-05-17 23:30:00,69.1,65.1,29.72,ESE,102,2.0,-999.0,87,0.00,,,0.00,WeatherSnoop3.0,2013-05-18 04:30:00,
2013-05-17 23:35:00,68.9,65.2,29.72,ESE,122,1.0,-999.0,88,0.00,,,0.00,WeatherSnoop3.0,2013-05-18 04:35:00,
2013-05-17 23:40:00,68.9,65.2,29.73,SSE,156,3.0,-999.0,88,0.00,,,0.00,WeatherSnoop3.0,2013-05-18 04:40:00,
2013-05-17 23:45:00,69.0,65.6,29.73,SE,137,4.0,-999.0,89,0.00,,,0.00,WeatherSnoop3.0,2013-05-18 04:45:00,
2013-05-17 23:50:00,69.1,65.7,29.73,SE,142,3.0,-999.0,89,0.00,,,0.00,WeatherSnoop3.0,2013-05-18 04:50:00,
2013-05-17 23:55:00,69.3,65.9,29.73,SE,145,3.0,-999.0,89,0.00,,,0.00,WeatherSnoop3.0,2013-05-18 04:55:00,